Flag for Germany Weather past 2 weeks in Marl, North Rhine-Westphalia, Germany

Now
37 °F

Passing clouds.


Feels Like: 34 °F
Forecast: 36 / 47 °F
Wind: 5 mph from West

Location: Dortmund / Wickede

Current Time: Mar 5, 2015 at 5:57:36 AM

Latest Report: Mar 5, 2015 at 5:20 AM


Visibility: N/A

Pressure: 30.57 "Hg

Humidity: 81%

Dew point: 32 °F

Location of MarlLocation

Historic Weather in Marl — Graph

°F

Marl temperature yesterday

Maximum temperature yesterday: 43 °F (at 2:50 PM)
Minimum temperature yesterday: 34 °F (at 6:20 AM)
Average temperature yesterday: 39 °F

Past Weeks' High & Low Weather Summary

 TemperatureHumidityPressure
High52 °F (Mar 1, 12:50 PM)100% (Feb 18, 10:20 AM)30.74 "Hg (Feb 18, 10:20 AM)
Low30 °F (Feb 28, 5:20 AM)42% (Feb 28, 1:50 PM)29.33 "Hg (Feb 21, 5:20 AM)
Average40 °F75%29.91 "Hg
* Reported Feb 17 10:20 PM — Mar 4 10:50 PM, Marl, Weather by CustomWeather, © 2015

Note: Actual official high and low records may vary slightly from our data, if they occured in-between our weather recording intervals... More about our weather records

Advertising

Marl weather history for previous 24 hours

 ConditionsComfort  
Time TempWeatherWind HumidityBarometerVisibility
10:50 PM
Wed, Mar 4
39 °FPassing clouds.10 mph81%30.39 "HgN/A
10:20 PM39 °FPassing clouds.10 mph81%30.36 "HgN/A
9:50 PM39 °FPassing clouds.12 mph81%30.36 "HgN/A
9:20 PM39 °FSprinkles. Passing clouds.14 mph81%30.33 "HgN/A
8:50 PM37 °FSprinkles. Passing clouds.13 mph87%30.33 "HgN/A
8:20 PM37 °FSprinkles. Passing clouds.13 mph81%30.33 "HgN/A
7:50 PM37 °FPassing clouds.16 mph81%30.30 "HgN/A
7:20 PM39 °FPassing clouds.12 mph75%30.30 "HgN/A
6:50 PM39 °FPassing clouds.10 mph75%30.30 "HgN/A
6:20 PM41 °FPassing clouds.14 mph66%30.27 "HgN/A
5:50 PM41 °FScattered clouds.14 mph70%30.27 "HgN/A
5:20 PM41 °FScattered clouds.14 mph66%30.24 "HgN/A
4:50 PM41 °FScattered showers. Scattered clouds.17 mph66%30.24 "HgN/A
4:20 PM43 °FScattered clouds.13 mph61%30.24 "HgN/A
3:50 PM43 °FPassing clouds.13 mph66%30.24 "HgN/A
3:20 PM41 °FScattered showers. Scattered clouds.14 mph76%30.21 "HgN/A
2:50 PM43 °FSprinkles. Partly sunny.14 mph66%30.21 "HgN/A
2:20 PM41 °FPartly sunny.17 mph70%30.21 "HgN/A
1:50 PM41 °FPartly sunny.14 mph76%30.21 "HgN/A
1:20 PM41 °FLight rain. Broken clouds.14 mph66%30.21 "HgN/A
12:50 PM41 °FPartly sunny.12 mph70%30.21 "HgN/A
12:20 PM41 °FPartly sunny.14 mph76%30.21 "HgN/A
11:50 AM39 °FPartly sunny.15 mph75%30.21 "HgN/A
11:20 AM39 °FPartly sunny.15 mph75%30.21 "HgN/A
10:50 AM39 °FPartly sunny.15 mph75%30.18 "HgN/A
10:20 AM37 °FPartly sunny.14 mph81%30.18 "HgN/A
9:50 AM37 °FPartly sunny.17 mph81%30.18 "HgN/A
9:20 AM37 °FPartly sunny.13 mph81%30.18 "HgN/A
8:50 AM37 °FScattered clouds.14 mph75%30.15 "HgN/A
8:20 AM36 °FPartly sunny.14 mph81%30.15 "HgN/A
7:50 AM36 °FPartly sunny.15 mph81%30.15 "HgN/A
7:20 AM34 °FScattered clouds.14 mph87%30.15 "HgN/A
6:50 AM34 °FClear.13 mph87%30.12 "Hg10 mi
6:20 AM34 °FClear.13 mph87%30.12 "Hg10 mi
5:50 AM36 °FClear.13 mph81%30.12 "Hg10 mi
5:20 AM36 °FClear.14 mph81%30.12 "Hg10 mi
Weather by CustomWeather, © 2015

See weather overviewHow to use our weather pages